[[{"header":{"parameterUnit":"m.s-1","parameterCategory":1,"la1":30.2991,"la2":30.254,"lo1":-89.0895,"lo2":-89.0444,"dy":0.0017,"dx":0.0017,"nx":28,"ny":28,"refTime":"2024-07-11T09:00:00:Z","depth":0,"parameterNumber":2,"parameterNumberName":"U-component_of_WINDS"},"data":[0,0,0,0,0,0,0,0,0,0,0,0,0,0,0,0,0,0,0,0,0,0,0,0,0,0,0,0,0,0,0,0,0,0,0,0,0,0,0,0,0,0,0,0,0,0,0,0,0,0,0,0,0,0,0,0,0,0,1.1452,1.1453,0,1.1587,1.1588,1.159,1.1616,1.1615,1.1614,1.1613,1.1754,1.1758,1.1763,0,0,0,0,0,0,0,0,0,0,0,0,0,1.1217,1.1222,1.1452,1.1453,1.1455,1.1586,1.1588,1.159,1.1616,1.1615,1.1614,1.1613,1.1752,1.1758,1.1763,0,0,0,0,0,0,0,0,0,0,0,0,0,1.1332,1.1223,1.1451,1.1484,1.1488,1.1586,1.1588,1.159,1.1617,1.1615,1.1614,1.1612,1.175,1.1757,1.1764,1.184,0,0,1.1786,1.1789,0,0,0,0,0,0,0,0,1.1326,1.1341,1.1477,1.1482,1.1487,1.1583,1.1557,1.1674,1.1617,1.1568,1.1613,1.1611,1.1698,1.171,1.1738,1.1846,1.1852,1.1786,1.1791,1.1794,1.1796,0,0,0,0,0,0,0,1.1318,1.1335,1.1505,1.1479,1.1485,1.1492,1.1507,1.1579,1.164,1.1572,1.1574,1.159,1.1701,1.1732,1.1742,1.1854,1.1786,1.1793,1.1797,1.18,1.2028,1.203,0,0,0,0,0,0,1.1304,1.1329,1.1501,1.1509,1.1401,1.1497,1.1514,1.1554,1.164,1.1651,1.1591,1.1591,1.172,1.1734,1.1747,1.1839,1.1794,1.18,1.1805,1.2026,1.2029,1.203,0,0,0,0,0,0,1.1299,1.1319,1.1495,1.1419,1.1442,1.1503,1.1548,1.1557,1.1588,1.1654,1.1665,1.1611,1.1719,1.1737,1.1816,1.1844,1.1804,1.181,1.2024,1.2027,1.203,1.2025,0,0,0,0,0,0,1.1292,1.1317,1.1346,1.142,1.1446,1.1561,1.155,1.1561,1.16,1.1601,1.1676,1.1687,1.172,1.1805,1.1823,1.1853,1.1816,1.2022,1.2025,1.2029,1.2023,1.2027,1.2031,0,0,0,0,0,1.1284,1.1341,1.1348,1.1368,1.1484,1.1563,1.1578,1.1614,1.1602,1.1632,1.1674,1.1685,1.1838,1.1813,1.1833,1.1866,1.202,1.2024,1.2028,1.2021,1.2026,1.2031,0,0,0,0,0,0,1.127,1.1351,1.136,1.1442,1.1495,1.1567,1.1606,1.1619,1.1677,1.1675,1.1718,1.1735,1.181,1.1847,1.1816,1.1942,1.1929,1.1937,1.1916,1.1922,1.1925,1.1915,1.1822,0,0,0,0,0,1.1277,1.1334,1.1402,1.1468,1.1494,1.1545,1.1581,1.1604,1.1661,1.1684,1.1732,1.1787,1.1848,1.1887,1.1947,1.2028,1.2044,1.2061,1.2065,1.2068,1.2074,1.2118,1.2125,1.2044,1.2044,1.2044,0,0,1.1291,1.1342,1.1376,1.1466,1.151,1.1568,1.1564,1.1626,1.1669,1.1694,1.177,1.1807,1.1871,1.1951,1.1989,1.1983,1.21,1.2073,1.2075,1.208,1.2123,1.213,1.2137,1.2047,1.2046,1.2046,0,0,1.1346,1.1392,1.1451,1.1494,1.156,1.1593,1.1607,1.1677,1.1702,1.1779,1.1798,1.185,1.1954,1.1998,1.2035,1.2104,1.2116,1.2123,1.2144,1.2185,1.2192,1.2198,1.2221,1.2229,1.2129,1.2129,1.2129,0,1.1356,1.1444,1.148,1.154,1.1578,1.1602,1.1661,1.1702,1.1784,1.181,1.1803,1.1932,1.1978,1.2067,1.2083,1.2113,1.2129,1.2114,1.2188,1.2194,1.22,1.2223,1.2231,1.2129,1.2129,1.2129,1.2129,0,1.1451,1.1512,1.1551,1.1628,1.1672,1.1731,1.1776,1.1815,1.1834,1.1868,1.1945,1.2,1.207,1.2093,1.2112,1.2184,1.2179,1.2179,1.2166,1.2208,1.2229,1.2238,1.213,1.213,1.213,1.2129,0,0,1.1503,1.1597,1.1611,1.1645,1.1719,1.1766,1.1826,1.1893,1.1925,1.1981,1.2032,1.2118,1.2118,1.2159,1.2184,1.2221,1.227,1.2217,1.2219,1.2223,1.235,1.2348,1.2358,1.2278,1.228,1.2281,1.2344,0,1.1565,1.1673,1.1706,1.1796,1.1851,1.1873,1.1925,1.1975,1.2008,1.206,1.2097,1.2156,1.2153,1.2178,1.2215,1.2256,1.2296,1.2252,1.2325,1.2327,1.2307,1.2369,1.2368,1.2425,1.2353,1.2355,1.2356,0,1.1653,1.1708,1.1803,1.1867,1.1892,1.1938,1.2001,1.205,1.2108,1.2129,1.2173,1.2194,1.2257,1.224,1.2327,1.2297,1.2328,1.2353,1.2356,1.2363,1.2343,1.2377,1.2444,1.2452,1.237,1.2369,1.2368,0,1.1679,1.1777,1.1846,1.1875,1.1952,1.1984,1.2017,1.2073,1.211,1.2166,1.219,1.2252,1.2286,1.2334,1.2371,1.2355,1.2453,1.244,1.2472,1.2471,1.2491,1.2489,1.2563,1.2514,1.2514,1.2513,1.2513,0,1.1745,1.1801,1.1858,1.19,1.1964,1.2001,1.2063,1.2098,1.2147,1.2196,1.222,1.2265,1.2311,1.2363,1.2392,1.2458,1.2474,1.2492,1.2499,1.249,1.2487,1.251,1.2507,1.2516,1.2515,1.2515,1.2514,0,1.1784,1.1824,1.19,1.1966,1.1984,1.2028,1.2085,1.2126,1.2159,1.2221,1.2237,1.229,1.2351,1.2393,1.2472,1.2492,1.2563,1.257,1.2543,1.2546,1.2575,1.2571,1.2665,1.2679,1.2621,1.2622,1.2622,0,1.1823,1.1866,1.1937,1.197,1.2004,1.2059,1.2096,1.2135,1.2173,1.224,1.2273,1.2336,1.2388,1.2485,1.253,1.259,1.2598,1.2627,1.2607,1.2595,1.2596,1.2593,1.2596,1.263,1.263,1.263,1.2631,0,1.1886,1.1904,1.1957,1.2017,1.2061,1.211,1.2159,1.2186,1.2232,1.2274,1.2336,1.2377,1.2456,1.2518,1.2582,1.2617,1.2631,1.2636,1.2647,1.2637,1.2618,1.2627,1.255,1.2634,1.2634,1.2633,1.2633,1.2633,1.1926,1.1965,1.2019,1.2077,1.2118,1.2163,1.2204,1.2242,1.2294,1.2361,1.2381,1.2445,1.25,1.2587,1.2622,1.2673,1.2671,1.2686,1.2689,1.2692,1.2691,1.2611,1.2685,1.2685,1.2685,1.2685,1.2685,0,1.1989,1.2025,1.2078,1.2145,1.219,1.2199,1.2254,1.2291,1.2347,1.2396,1.2446,1.2517,1.2576,1.2625,1.2686,1.2717,1.2725,1.2732,1.2729,1.2736,1.2691,1.2675,1.2724,1.2724,1.2724,1.2724,1.2724,1.2724,1.2027,1.2093,1.2116,1.2202,1.2238,1.23,1.233,1.2372,1.2411,1.2488,1.2537,1.2568,1.2617,1.2681,1.2735,1.2748,1.2769,1.2774,1.2788,1.2745,1.274,1.2736,1.2721,1.2778,1.2778,1.2829,1.2829,1.283]},{"header":{"parameterUnit":"m.s-1","parameterCategory":1,"la1":30.2991,"la2":30.254,"lo1":-89.0895,"lo2":-89.0444,"dy":0.0017,"dx":0.0017,"nx":28,"ny":28,"refTime":"2024-07-11T09:00:00:Z","depth":0,"parameterNumber":3,"parameterNumberName":"V-component_of_WINDS"},"data":[0,0,0,0,0,0,0,0,0,0,0,0,0,0,0,0,0,0,0,0,0,0,0,0,0,0,0,0,0,0,0,0,0,0,0,0,0,0,0,0,0,0,0,0,0,0,0,0,0,0,0,0,0,0,0,0,0,0,3.5548,3.5548,0,3.5549,3.5549,3.5549,3.5552,3.5552,3.5552,3.5552,3.5551,3.5551,3.5551,0,0,0,0,0,0,0,0,0,0,0,0,0,3.5544,3.5544,3.5548,3.5548,3.5548,3.5549,3.5549,3.5549,3.5552,3.5552,3.5552,3.5552,3.5551,3.5551,3.5551,0,0,0,0,0,0,0,0,0,0,0,0,0,3.5546,3.5544,3.5548,3.5549,3.555,3.5549,3.5549,3.5549,3.5552,3.5552,3.5552,3.5552,3.5551,3.5551,3.5551,3.5548,0,0,3.5551,3.555,0,0,0,0,0,0,0,0,3.5546,3.5546,3.5549,3.5549,3.5549,3.555,3.5547,3.5548,3.5552,3.5551,3.5552,3.5552,3.5551,3.5551,3.5551,3.5548,3.5548,3.5551,3.555,3.555,3.555,0,0,0,0,0,0,0,3.5545,3.5546,3.5548,3.5549,3.5549,3.5549,3.5549,3.5548,3.555,3.5551,3.5551,3.5552,3.5551,3.5551,3.5551,3.5548,3.5551,3.555,3.555,3.555,3.554,3.554,0,0,0,0,0,0,3.5546,3.5546,3.5548,3.5548,3.5548,3.5549,3.5549,3.555,3.555,3.555,3.5551,3.5552,3.5551,3.5551,3.555,3.5545,3.555,3.555,3.555,3.554,3.554,3.554,0,0,0,0,0,0,3.5545,3.5546,3.5548,3.5547,3.5547,3.5549,3.555,3.555,3.555,3.5551,3.5551,3.5551,3.5551,3.5551,3.5548,3.5545,3.555,3.555,3.554,3.554,3.554,3.5536,0,0,0,0,0,0,3.5545,3.5546,3.5546,3.5547,3.5547,3.5547,3.555,3.555,3.555,3.555,3.555,3.555,3.5551,3.5548,3.5548,3.5545,3.555,3.5541,3.554,3.554,3.5537,3.5536,3.5535,0,0,0,0,0,3.5545,3.5544,3.5546,3.5546,3.5547,3.5547,3.5547,3.5548,3.555,3.5549,3.5549,3.555,3.5546,3.5548,3.5548,3.5545,3.5541,3.554,3.554,3.5537,3.5536,3.5535,0,0,0,0,0,0,3.5543,3.5545,3.5546,3.5546,3.5546,3.5547,3.5546,3.5548,3.5547,3.5547,3.5548,3.5548,3.5545,3.5545,3.5547,3.5541,3.5543,3.5543,3.5541,3.554,3.554,3.5539,3.555,0,0,0,0,0,3.5542,3.5542,3.5544,3.5543,3.5544,3.5545,3.5545,3.5546,3.5546,3.5546,3.5545,3.5544,3.5543,3.5541,3.554,3.5536,3.5535,3.5534,3.5533,3.5533,3.5532,3.5528,3.5527,3.5538,3.5538,3.5538,0,0,3.5541,3.5542,3.5542,3.5543,3.5543,3.5542,3.5545,3.5544,3.5543,3.5545,3.5543,3.5542,3.5541,3.5537,3.5536,3.5537,3.5529,3.5532,3.5532,3.5532,3.5528,3.5526,3.5525,3.5538,3.5538,3.5538,0,0,3.5538,3.554,3.5539,3.5539,3.5539,3.554,3.5539,3.554,3.554,3.5537,3.5538,3.5536,3.5533,3.5532,3.5531,3.5525,3.5525,3.5524,3.5521,3.5517,3.5516,3.5515,3.5511,3.551,3.5524,3.5524,3.5524,0,3.5536,3.5536,3.5538,3.5537,3.5536,3.5538,3.5536,3.5536,3.5535,3.5534,3.5536,3.5531,3.5531,3.5526,3.5524,3.5523,3.5522,3.5524,3.5516,3.5515,3.5514,3.5511,3.551,3.5524,3.5524,3.5524,3.5524,0,3.5533,3.5532,3.5531,3.5531,3.553,3.5529,3.5529,3.5528,3.5528,3.5528,3.5524,3.5523,3.5521,3.5519,3.552,3.5514,3.5514,3.5516,3.5519,3.5513,3.551,3.5508,3.5523,3.5523,3.5523,3.5523,0,0,3.553,3.5529,3.5529,3.5528,3.5527,3.5526,3.5524,3.5521,3.552,3.5519,3.5515,3.5512,3.5513,3.5511,3.5511,3.5508,3.5501,3.551,3.5509,3.5507,3.5492,3.549,3.5489,3.5501,3.5501,3.5501,3.5492,0,3.5526,3.5523,3.5524,3.552,3.5518,3.5519,3.5516,3.5515,3.5514,3.5511,3.551,3.5507,3.5509,3.5508,3.5505,3.5503,3.5498,3.5504,3.5497,3.5497,3.5497,3.5487,3.5486,3.5477,3.549,3.549,3.549,0,3.5522,3.5521,3.5517,3.5515,3.5514,3.5512,3.5509,3.5507,3.5504,3.5504,3.5501,3.5501,3.5497,3.5499,3.5492,3.5496,3.5493,3.5491,3.5491,3.549,3.5493,3.5485,3.5475,3.5473,3.5488,3.5489,3.5489,0,3.5519,3.5516,3.5513,3.5512,3.551,3.5508,3.5507,3.5504,3.5502,3.5499,3.5497,3.5493,3.5491,3.5487,3.5485,3.5488,3.5477,3.548,3.5475,3.5475,3.5473,3.5473,3.5461,3.5472,3.5472,3.5472,3.5472,0,3.5515,3.5512,3.5511,3.5509,3.5505,3.5505,3.5501,3.5499,3.5497,3.5493,3.5493,3.5489,3.5488,3.5483,3.5481,3.5474,3.5474,3.5472,3.5471,3.5471,3.5471,3.5469,3.5469,3.5472,3.5472,3.5472,3.5472,0,3.5511,3.551,3.5506,3.5504,3.5503,3.55,3.5498,3.5495,3.5493,3.5488,3.5487,3.5485,3.5479,3.5477,3.547,3.5468,3.546,3.546,3.5461,3.5461,3.5455,3.5455,3.5441,3.5438,3.5452,3.5452,3.5452,0,3.5508,3.5506,3.5503,3.5501,3.5499,3.5496,3.5494,3.5492,3.549,3.5485,3.5482,3.5477,3.5472,3.5463,3.5459,3.5453,3.5453,3.5448,3.5452,3.5451,3.5451,3.5451,3.545,3.5447,3.5447,3.5447,3.5447,0,3.5503,3.5502,3.5499,3.5495,3.5493,3.549,3.5486,3.5484,3.5482,3.5479,3.5473,3.547,3.5462,3.5456,3.5449,3.5446,3.5445,3.5446,3.5444,3.5444,3.5444,3.5442,3.5458,3.5446,3.5446,3.5446,3.5446,3.5446,3.5498,3.5496,3.5493,3.5489,3.5486,3.5483,3.5479,3.5477,3.5473,3.5467,3.5466,3.5459,3.5454,3.5445,3.5441,3.5435,3.5436,3.5434,3.5433,3.5433,3.5431,3.5445,3.5434,3.5434,3.5434,3.5434,3.5434,0,3.5492,3.549,3.5486,3.5482,3.5478,3.5478,3.5474,3.547,3.5465,3.546,3.5456,3.5448,3.5441,3.5436,3.5429,3.5424,3.5424,3.5422,3.5422,3.5421,3.5432,3.5433,3.5423,3.5423,3.5423,3.5423,3.5423,3.5423,3.5488,3.5483,3.5482,3.5474,3.5472,3.5466,3.5463,3.5459,3.5455,3.5447,3.5441,3.5438,3.5433,3.5425,3.5418,3.5416,3.5413,3.5412,3.541,3.542,3.5421,3.5422,3.5423,3.5411,3.5411,3.54,3.54,3.54]}]]